Regional Weather Roundup
Issued by NWS

Home | Current Version | Previous Version | Text Only | Print | Product List | Glossary On
Versions: 1 2 3 4 5 6 7 8 9 10 11 12 13 14 15 16 17 18 19 20 21 22 23 24 25 26 27 28 29 30 31 32 33 34 35 36 37 38 39 40 41 42 43 44 45 46 47 48 49 50
963
ASHW40 PHFO 132343
RWRHI

WEATHER ROUNDUP FOR HAWAII
NATIONAL WEATHER SERVICE HONOLULU HI
100 PM HST SAT FEB 13 2016

THIS IS AN AUTOMATED REPORT THAT HAS NOT BEEN QUALITY CONTROLLED.

NOTE..."FAIR" INDICATES FEW OR NO CLOUDS BELOW 12,000 FEET WITH NO
SIGNIFICANT WEATHER AND/OR OBSTRUCTIONS TO VISIBILITY.

* - THESE SITES REPORT LIMITED FIELDS

HIZ001>004-140000-
KAUAI-NIIHAU-

CITY           SKY/WX    TMP DP  RH WIND       PRES   REMARKS
LIHUE APT      MOSUNNY   82  68  62 E10       30.07F
PORT ALLEN*      N/A     82 N/A N/A SE21G26     N/A
POIPU*           N/A     82 N/A N/A E7G14       N/A
PRINCEVILLE*     N/A     79 N/A N/A E12G20      N/A
KOKOLE POINT*  NOT AVBL
MOLOAA DAIRY*    N/A     81  70  69 E10G18      N/A
WAIMEA HTS*      N/A     86  63  45 E12G22      N/A
PUU OPAE*        N/A     75  61  60 NW9G16      N/A
PUU LUA*       NOT AVBL
MAKAHA RIDGE*    N/A    N/A N/A N/A NW2G8       N/A
$$

HIZ005>011-140000-
OAHU-

CITY           SKY/WX    TMP DP  RH WIND       PRES   REMARKS
HONOLULU       MOSUNNY   81  69  67 SE12      30.04F
KALAELOA       SUNNY     82  67  60 SE9       30.06F
KANEOHE MCB    CLOUDY    79  69  71 E8        30.03F
WHEELER FIELD  FAIR      79  66  64 E7        30.06F
BELLOWS*         N/A    N/A N/A N/A E10         N/A
KAHUKU*          N/A    N/A N/A N/A VRB9G20     N/A
WHEELER*         N/A    N/A N/A N/A SE7G14      N/A
WAIANAE HARBOR   N/A    N/A N/A N/A S16         N/A
DILLINGHAM*      N/A     82  66  57 MISG        N/A
KAHUKU TRN*      N/A     82  70  65 SE6G21      N/A
KAWAILOA*        N/A     81  63  54 SE6G14      N/A
KII*             N/A     79  72  78 E15G21      N/A
MAKUA RANGE*     N/A     64  52  63 W3          N/A
OAHU FOREST NW NOT AVBL
SCHOFIELD BRK*   N/A     61  45  55 MISG        N/A
SCHOFIELD S*   NOT AVBL
WAIANAE VLY*   NOT AVBL
KUAOKALA*      NOT AVBL
HONOULIUULI*   NOT AVBL
MOKUOLOE IS*   NOT AVBL
PALEHUA*       NOT AVBL
WAIAWA PHB*    NOT AVBL
$$

HIZ012>013-140000-
MOLOKAI-

CITY           SKY/WX    TMP DP  RH WIND       PRES   REMARKS
MOLOKAI AIRPT  SUNNY     84  64  50 NE9       30.04F
KALAUPAPA      NOT AVBL
MAKAPULAPAI*     N/A     82  70  65 E18G30      N/A
MOLOKAI 1*     NOT AVBL
PUU ALII*        N/A     64  59  83 NE3G14      N/A
$$

HIZ016-140000-
KAHOOLAWE-

CITY           SKY/WX    TMP DP  RH WIND       PRES   REMARKS
KAHOOLAWE*       N/A     75 N/A N/A E1          N/A
HAKIOAWA*        N/A     79  66  64 MISG      30.43F
HONOKANAIA*      N/A     82  63  52 NE18G35   29.99F
KANELOA*         N/A     79  66  65 E26G41    30.12F
KEALIALALO*    NOT AVBL
LUA MAKIKA*    NOT AVBL
$$

HIZ014>015-140000-
LANAI-

CITY           SKY/WX    TMP DP  RH WIND       PRES   REMARKS
LANAI CITY     FAIR      77  66  68 SW8       30.08F
LANAI 1*       NOT AVBL
$$

HIZ017>028-140000-
MAUI-

CITY           SKY/WX    TMP DP  RH WIND       PRES   REMARKS
KAHULUI        MOSUNNY   87  62  43 E8        30.01F
KAPALUA-W MAUI MOSUNNY   77  64  65 CALM      30.05
HANA AIRPORT   NOT AVBL
HANA*            N/A     79 N/A N/A SE8G17      N/A
HALEAKALA SUMM   N/A     59   5  11 W6G39       N/A
MAALAEA BAY*     N/A     88 N/A N/A N2G18       N/A
HALEAKALA*     NOT AVBL
KAUPO GAP*       N/A     72  52  49 NE6G20      N/A
KULA 1*          N/A     64  51  62 W6          N/A
$$

HIZ023>026-140000-
BIG ISLAND OF HAWAII COAST AND LOWER SLOPES-

CITY           SKY/WX    TMP DP  RH WIND       PRES   REMARKS
KAILUA KONA    SUNNY     81  67  62 W8        30.01F
HILO           MOSUNNY   85  67  54 E10       30.07F
HONOKAA*         N/A     75 N/A N/A VRB1        N/A
KAWAIHAE MWT*    N/A     81 N/A N/A W7          N/A
KAWAIHAE*      NOT AVBL
SOUTH POINT*     N/A     77 N/A N/A N22G32      N/A
UPOLU AIRPORT*   N/A    N/A N/A N/A E21G32      N/A
KAMUELA*       NOT AVBL
HAKALAU*         N/A     63  51  63 S7G15       N/A
KALOKO-HONOKO*   N/A     82  66  57 CALM        N/A
PALI 2*          N/A     79  54  41 E13G25      N/A
KEALAKOMO*       N/A     82  68  61 E20G26      N/A
KAUPULEHU*     NOT AVBL
KAPAPALA*        N/A     80  60  50 E10G22      N/A
LOWER KAHUKU*    N/A     72 -35   1 SE5G17      N/A
PUHE CS*         N/A     81  63  54 W6          N/A
PUHO CS*         N/A     82  62  50 W3          N/A
PTA KEAMUKU*     N/A     73  55  53 CALM        N/A
WAIKOLOA*        N/A     81 N/A N/A W9          N/A
$$

HIZ027>028-140000-
BIG ISLAND OF HAWAII INTERIOR AND SUMMMITS-

CITY           SKY/WX    TMP DP  RH WIND       PRES   REMARKS
BRADSHAW FIELD SUNNY     70  38  31 SW17G23   30.32S
MK VISITOR CEN   N/A     59  12  15 S9          N/A
MAUNA KEA*       N/A     48 -11   8 S7          N/A
MAUNA LOA*       N/A    N/A N/A N/A MISG        N/A
MAUNA LOA 1*   NOT AVBL
PTA KIPUKA*      N/A     70  48  46 N8G15       N/A
PTA RANGE 17*    N/A    N/A N/A N/A NW12G23     N/A
PTA WEST*        N/A     72  52  49 NW12G21     N/A
NENE CABIN*      N/A     57  52  82 E12G22      N/A
AHUMOA*        NOT AVBL
PTA PORTABLE*  NOT AVBL
PUU MALI*        N/A     63  52  67 NW9G15      N/A
$$

HIC003-140000-
NORTHWEST ISLANDS-

CITY           SKY/WX    TMP DP  RH WIND       PRES   REMARKS
MIDWAY ISLAND  LGT RAIN  57  54  88 W15G24    30.04R
MIDWAY NOS*    NOT AVBL
FRENCH FRIGATE NOT AVBL
$$

PHZ110>124-180-140000-
BUOY REPORTS

STATION/POSITION TIME  TEMP    WIND        PRES    WAVE   SWELL
                       AIR SEA DIR/SP/G            HT/PER HT/DIR
                 (UTC) (F)     (DEG/KT/KT) (MB)    (FT/S) (FT/D)
BUOY 51001       2300   75 75  160/ 14/ 16 1016.9F
BUOY 51101       2250   76 75  160/ 16/ 17 1016.8F   4/11   3/320
BUOY 51100       NOT AVBL
BUOY 51002       2250   77 78   90/ 19/ 23 1014.8F  10/10   7/110
BUOY 51003       2250   77 78  100/ 16/ 17 1016.4F   6/13   5/350
BUOY 51004       2250   76 77   60/ 19/ 23 1015.7F  10/10   8/100
BARBERS PT BUOY  NOT AVBL
WAIMEA BAY BUOY  2304      77                N/A     4/13   3/330
KAILUA BAY BUOY  2311      77                N/A     5/13   2/ 10
LANAI BUOY       NOT AVBL
BARBERS PT 2     2303      78                N/A     3/13   2/290
PAUWELA MAUI     2307      76                N/A     7/12   3/340
HILO             2312      77                N/A     7/12   3/360
KANEOHE BAY BUOY 2306      77                N/A     5/13   2/350
HANALEI KAUAI    2301      77                N/A     5/12   3/300
KAHULUI HARBOR   2300   80 77              1015.9F
HONOLULU HARBOR  2300   81 77              1017.8F
KILO NALU        NOT AVBL
HILO HARBOR      2300   81 76              1017.7F
MOKUOLOE         2200   79 77  100/  9/ 15 1018.6F
NAWILIWILI       2300   77 78              1017.7F
WHOTS BUOY       NOT AVBL
BUOY 51028       NOT AVBL
$$

......................KEY........................................
  SKY/WX - SKY CONDITIONS/PRESENT WEATHER
  TMP    - TEMPERATURE IN FAHRENHEIT
  DWPT   - DEWPOINT IN FAHRENHEIT
  RH     - RELATIVE HUMIDITY IN PERCENT
  WIND   - DIRECTION AND SPEED /MPH FOR ISLANDS...KTS FOR BUOYS/
  PRES   - MEAN SEA LEVEL PRESSURE IN INCHES OF HG
  VSB    - VISIBILITY IN MILES
  HX     - HEAT INDEX
  WCI    - WIND CHILL INDEX
  VRB    - VARIABLE WIND DIRECTION
  N/A    - NOT AVAILABLE




USA.gov is the U.S. government's official web portal to all federal, state and local government web resources and services.